Погода в Ленцерхайде

Швейцария     46°43′34″N   9°33′27″E
темп.,
°C
ветер,
м/с
пор.,
м/с
влажн.,
%
обл.,
%
осадки,
мм/ч
давл.,
гПа
погр.,
м
4 июля, пн
пн423:00+12ю22890 1.9 102329
02:00+12ю228524 2.0 102121
05:00+11ююв218596 0.3 102117
08:00+13ссз0187100 1.1 102294
11:00+17с2375100 1.2 1020475
14:00+18св0174100 4.1 1019242
17:00+12вюв2297100 8.6 1021116
20:00+13ссв1192100 9.9 102037
5 июля, вт
вт523:00+10ююв0195100 0.8 102111
02:00+9ююз1195100 0.8 102210
05:00+10юз119191 0.0 102112
08:00+12ссз11861 0.0 1021202
11:00+17с336412 0.1 10201070
14:00+17с436650 0.6 10201276
17:00+15с337561 0.8 1021916
20:00+13ссв238424 1.1 1022498
6 июля, ср
ср623:00+9ссв119622 0.2 102516
02:00+8ююв119523 0.2 102521
05:00+7ю119522 0.0 102522
08:00+11сз01840 0.0 1024235
11:00+16с22540 0.0 10231118
14:00+19с32403 0.0 10211793
17:00+19с32416 0.0 10201724
20:00+13с34825 0.4 1022270
7 июля, чт
чт723:00+10св119260 0.3 102413
02:00+9с0094100 0.4 102313
05:00+8с009733 0.0 102321
08:00+10с129474 0.1 1023231
11:00+13с336996 0.3 1021997
14:00+14с446646 1.3 10211262
17:00+14с336853 1.5 10211129
20:00+10ссв3491100 3.3 1024308
8 июля, пт
пт823:00+7ссв239857 0.6 1026120
02:00+8с249877 1.1 1026188
05:00+7с2310096 0.2 1026174
08:00+7с249799 0.4 1026333
11:00+11с448016 0.5 1026925
14:00+14с45535 0.7 10251434
17:00+14с45472 0.0 10251355
20:00+11с34675 0.0 1026636